N842JV KMRH-KFFA

Flight info

Callsign N842JV
Flight time N/A
Altitude 1500
Route DCT KHSE DCT AVON DCT RODANTHE
Aircraft BE33/L-V/N

Departure

Time N/A
Airport Michael J. Smith Field (KMRH)

Arrival

Time 2026-05-07 23:43
Airport First Flight Airport (KFFA)
Time Latitude Longitude Altitude Speed Heading
2026-05-07 23:30 35.93049 -75.66327 1204 ft 112 kts 26°
2026-05-07 23:30 35.93543 -75.66070 1211 ft 104 kts 11°
2026-05-07 23:31 35.94211 -75.66078 1239 ft 87 kts 341°
2026-05-07 23:31 35.94749 -75.66341 1257 ft 82 kts 330°
2026-05-07 23:31 35.95316 -75.66474 1228 ft 82 kts 350°
2026-05-07 23:31 35.95891 -75.66529 1166 ft 82 kts 353°
2026-05-07 23:32 35.96435 -75.66638 1092 ft 75 kts 340°
2026-05-07 23:32 35.96865 -75.66934 1091 ft 74 kts 309°
2026-05-07 23:32 35.97184 -75.67502 1148 ft 96 kts 291°
2026-05-07 23:32 35.97206 -75.68475 1061 ft 131 kts 259°
2026-05-07 23:33 35.96745 -75.69504 1094 ft 146 kts 218°
2026-05-07 23:33 35.95770 -75.69884 1159 ft 155 kts 176°
2026-05-07 23:33 35.94782 -75.69321 1164 ft 164 kts 134°
2026-05-07 23:33 35.94322 -75.68028 1165 ft 171 kts 95°
2026-05-07 23:34 35.94337 -75.66540 1155 ft 174 kts 82°
2026-05-07 23:34 35.94855 -75.65259 1140 ft 165 kts 43°
2026-05-07 23:34 35.95855 -75.64670 1151 ft 156 kts 17°
2026-05-07 23:34 35.96323 -75.64477 1145 ft 153 kts 19°
2026-05-07 23:35 35.97319 -75.64087 1144 ft 148 kts
2026-05-07 23:35 35.98327 -75.63972 1148 ft 143 kts
2026-05-07 23:35 35.99311 -75.63834 1149 ft 141 kts
2026-05-07 23:35 36.00279 -75.63706 1150 ft 139 kts
2026-05-07 23:36 36.01227 -75.63580 1167 ft 125 kts
2026-05-07 23:36 36.02024 -75.63484 1144 ft 107 kts
2026-05-07 23:36 36.02730 -75.63397 1141 ft 97 kts
2026-05-07 23:36 36.03334 -75.63646 1076 ft 93 kts 313°
2026-05-07 23:37 36.03511 -75.64411 917 ft 98 kts 275°
2026-05-07 23:37 36.03550 -75.65248 754 ft 96 kts 279°
2026-05-07 23:37 36.03601 -75.66082 533 ft 100 kts 279°
2026-05-07 23:37 36.03343 -75.66835 356 ft 100 kts 212°
2026-05-07 23:38 36.02692 -75.66944 209 ft 94 kts 170°
2026-05-07 23:38 36.02003 -75.67063 103 ft 103 kts 190°
2026-05-07 23:38 36.01284 -75.67319 277 ft 111 kts 193°
2026-05-07 23:38 36.00510 -75.67630 533 ft 116 kts 198°
2026-05-07 23:39 35.99763 -75.67872 886 ft 104 kts 158°
2026-05-07 23:39 35.99247 -75.67391 1051 ft 94 kts 108°
2026-05-07 23:39 35.98992 -75.66602 1079 ft 97 kts 81°
2026-05-07 23:39 35.99231 -75.65836 1011 ft 106 kts 45°
2026-05-07 23:40 35.99861 -75.65316 1018 ft 111 kts 20°
2026-05-07 23:40 36.00581 -75.64929 1049 ft 115 kts 24°
2026-05-07 23:40 36.01301 -75.64499 1107 ft 113 kts 25°
2026-05-07 23:40 36.01933 -75.64160 1115 ft 88 kts 22°
2026-05-07 23:41 36.02474 -75.63918 1065 ft 76 kts 14°
2026-05-07 23:41 36.02990 -75.63930 889 ft 82 kts 336°
2026-05-07 23:41 36.03282 -75.64557 740 ft 94 kts 287°
2026-05-07 23:41 36.03392 -75.65336 594 ft 90 kts 290°
2026-05-07 23:42 36.03345 -75.66126 434 ft 102 kts 250°
2026-05-07 23:42 36.02863 -75.66775 246 ft 104 kts 207°
2026-05-07 23:42 36.02164 -75.67025 34 ft 104 kts 192°
2026-05-07 23:42 36.01564 -75.67220 10 ft 71 kts 199°
2026-05-07 23:43 36.01252 -75.67329 10 ft 13 kts 169°
2026-05-07 23:43 36.01265 -75.67296 10 ft 5 kts 15°
2026-05-07 23:43 36.01312 -75.67278 11 ft 8 kts 19°
2026-05-07 23:43 36.01364 -75.67244 11 ft 8 kts 36°
2026-05-07 23:44 36.01389 -75.67176 11 ft 6 kts 99°
2026-05-07 23:44 36.01391 -75.67168 11 ft 0 kts 15°